This is the latest recevied weather packets stored in our database for station/object AB1AU. If no packets are shown the sender has not sent any weather packets the latest 10 day(s).
| Time | Temp. | Humidity | Pressure | Rain* | Wind** | Luminosity | Snow |
|---|---|---|---|---|---|---|---|
| 1787783074 | 26.67° C | 50% | 1017 hPa | 0 mm | - | 13 W/m² | - |
| 1787782773 | 26.67° C | 49% | 1017 hPa | 0 mm | - | 15 W/m² | - |
| 1787782469 | 26.67° C | 49% | 1016.9 hPa | 0 mm | - | 14 W/m² | - |
| 1787782169 | 26.67° C | 48% | 1016.8 hPa | 0 mm | - | 14 W/m² | - |
| 1787781865 | 27.22° C | 47% | 1017.1 hPa | 0 mm | - | 12 W/m² | - |
| 1787781563 | 27.22° C | 47% | 1017.2 hPa | 0 mm | - | 13 W/m² | - |
| 1787781263 | 27.22° C | 46% | 1016.9 hPa | 0 mm | - | 15 W/m² | - |
| 1787780960 | 27.22° C | 46% | 1017 hPa | 0 mm | - | 14 W/m² | - |
| 1787780655 | 27.78° C | 45% | 1017 hPa | 0 mm | - | 15 W/m² | - |
| 1787780350 | 27.78° C | 45% | 1017 hPa | 0 mm | - | 18 W/m² | - |
| 1787780047 | 27.78° C | 45% | 1017 hPa | 0 mm | - | 19 W/m² | - |
| 1787779741 | 28.33° C | 44% | 1016.8 hPa | 0 mm | - | 19 W/m² | - |
| 1787779440 | 28.33° C | 44% | 1016.9 hPa | 0 mm | - | 54 W/m² | - |
| 1787779135 | 27.78° C | 44% | 1016.8 hPa | 0 mm | - | 19 W/m² | - |
| 1787778830 | 28.33° C | 43% | 1016.7 hPa | 0 mm | - | 20 W/m² | - |
| 1787778526 | 28.33° C | 43% | 1016.8 hPa | 0 mm | - | 22 W/m² | - |
| 1787778222 | 28.89° C | 42% | 1016.9 hPa | 0 mm | - | 34 W/m² | - |
| 1787777921 | 28.89° C | 42% | 1017 hPa | 0 mm | - | 23 W/m² | - |
| 1787777618 | 28.89° C | 41% | 1016.9 hPa | 0 mm | - | 21 W/m² | - |
| 1787777313 | 28.89° C | 40% | 1016.8 hPa | 0 mm | - | 104 W/m² | - |
| 1787777012 | 28.89° C | 41% | 1016.9 hPa | 0 mm | - | 163 W/m² | - |
| 1787776711 | 28.89° C | 42% | 1016.9 hPa | 0 mm | - | 67 W/m² | - |
| 1787776410 | 28.33° C | 41% | 1016.8 hPa | 0 mm | - | 31 W/m² | - |
| 1787776108 | 28.33° C | 41% | 1017.1 hPa | 0 mm | - | 34 W/m² | - |
| 1787775803 | 28.89° C | 42% | 1017 hPa | 0 mm | - | 94 W/m² | - |
* Rain latest hour (hover to see other rain measurements)
** Current wind speed in m/s (hover to see current wind gust speed)